カタログに戻る

STARLINK-36404

運用中通信SSO
NORAD 67664·PAYLOAD·🇺🇸 United States

打ち上げ Feb 2, 2026 から Vandenberg Space Force Base

Loading…

次のパス (今後24時間)

TLE

最新Source: CelesTrak SupGP

元期: Sep 15, 2026, 03:35 UTC

1 67664C 26022S   26258.14979167 -.00060443  00000+0 -18767-2 0  2585
2 67664  97.2840 289.7211 0000998  93.1861 233.9853 15.33464011    17

AllMySatでSTARLINK-36404をリアルタイム追跡

Download on the App Store